Tracking 21473 objects as of 18-Sep-2020
HD Live streaming from Space Station
objects crossing your sky now

SL-16 R/B

Track SL-16 R/B now!
10-day predictions
SL-16 R/B is classified as:


NORAD ID: 25400
Int'l Code: 1998-043G
Perigee: 806.2 km
Apogee: 822.0 km
Inclination: 98.6 °
Period: 101.0 minutes
Semi major axis: 7185 km
RCS: 12.0301 m2 (large)
Launch date: July 10, 1998
Source: Commonwealth of Independent States (former USSR) (CIS)
Launch site: TYURATAM MISSILE AND SPACE COMPLEX (TTMTR)

Note: This is a ROCKET BODY
aabbcc
Your satellite tracking list
Your tracking list is empty




NASA's NSSDC Master Catalog

Two Line Element Set (TLE):
1 25400U 98043G   20261.80690465 -.00000016 +00000-0 +11553-4 0  9991
2 25400 098.6105 196.0470 0010998 068.2282 292.0067 14.25460582154175
Source of the keplerian elements: AFSPC